This is the latest recevied weather packets stored in our database for station/object KE8DAF-15. If no packets are shown the sender has not sent any weather packets the latest 1 day(s).
| Time | Temp. | Humidity | Pressure | Rain* | Wind** | Luminosity | Snow |
|---|---|---|---|---|---|---|---|
| 1778013600 | 10.56° C | 40% | 993.3 hPa | 0 mm | - | - | - |
| 1778013300 | 10.56° C | 40% | 993.2 hPa | 0 mm | - | - | - |
| 1778012700 | 10.56° C | 41% | 993 hPa | 0 mm | - | - | - |
| 1778012400 | 10.56° C | 40% | 993 hPa | 0 mm | - | - | - |
| 1778012100 | 11.11° C | 40% | 993 hPa | 0 mm | - | - | - |
| 1778011800 | 11.11° C | 41% | 993.1 hPa | 0 mm | - | - | - |
| 1778011500 | 10.56° C | 40% | 992.9 hPa | 0 mm | - | - | - |
| 1778011200 | 10.56° C | 41% | 993 hPa | 0 mm | - | - | - |
| 1778010900 | 10.56° C | 40% | 993 hPa | 0 mm | - | - | - |
| 1778010600 | 11.11° C | 40% | 992.9 hPa | 0 mm | - | - | - |
| 1778010300 | 11.11° C | 36% | 992.9 hPa | 0 mm | - | - | - |
| 1778009700 | 10.56° C | 41% | 993 hPa | 0 mm | - | - | - |
| 1778001301 | 10° C | 50% | 992.2 hPa | 0 mm | - | - | - |
| 1778001001 | 9.44° C | 50% | 992.2 hPa | 0 mm | - | - | - |
| 1777999501 | 9.44° C | 48% | 991.9 hPa | 0 mm | - | - | - |
| 1777998901 | 10° C | 48% | 991.8 hPa | 0 mm | - | - | - |
| 1777998601 | 9.44° C | 53% | 992 hPa | 0 mm | - | - | - |
| 1777998301 | 8.89° C | 54% | 991.9 hPa | 0 mm | - | - | - |
| 1777998001 | 9.44° C | 50% | 991.9 hPa | 0 mm | - | - | - |
| 1777997401 | 8.89° C | 63% | 991.9 hPa | 0 mm | - | - | - |
| 1777997101 | 8.33° C | 63% | 992 hPa | 0 mm | - | - | - |
| 1777996801 | 7.78° C | 62% | 992 hPa | 0 mm | - | - | - |
* Rain latest hour (hover to see other rain measurements)
** Current wind speed in m/s (hover to see current wind gust speed)